TimeEDT,TemperatureF,Dew PointF,Humidity,Sea Level PressureIn,VisibilityMPH,Wind Direction,Wind SpeedMPH,Gust SpeedMPH,PrecipitationIn,Events,Conditions,WindDirDegrees,DateUTC
12:15 AM,60.8,55.4,82,30.23,10.0,ENE,16.1,23.0,N/A,,Overcast,60,2013-10-13 04:15:00
12:35 AM,60.8,55.4,82,30.23,10.0,ENE,12.7,25.3,N/A,,Overcast,60,2013-10-13 04:35:00
12:55 AM,60.8,55.4,82,30.24,10.0,NE,19.6,25.3,N/A,,Overcast,50,2013-10-13 04:55:00
1:15 AM,60.8,53.6,77,30.24,10.0,ENE,15.0,20.7,N/A,,Overcast,60,2013-10-13 05:15:00
1:35 AM,60.8,53.6,77,30.25,10.0,ENE,13.8,24.2,N/A,,Overcast,60,2013-10-13 05:35:00
1:55 AM,60.8,53.6,77,30.25,10.0,ENE,18.4,23.0,N/A,,Overcast,60,2013-10-13 05:55:00
2:15 AM,60.8,53.6,77,30.25,10.0,ENE,17.3,21.9,N/A,,Overcast,60,2013-10-13 06:15:00
2:35 AM,59.0,53.6,82,30.25,10.0,ENE,11.5,26.5,N/A,,Overcast,60,2013-10-13 06:35:00
2:55 AM,59.0,53.6,82,30.25,10.0,ENE,13.8,20.7,N/A,,Overcast,60,2013-10-13 06:55:00
3:15 AM,60.8,53.6,77,30.25,10.0,NE,12.7,21.9,N/A,,Overcast,50,2013-10-13 07:15:00
3:35 AM,60.8,53.6,77,30.25,10.0,ENE,12.7,21.9,N/A,,Overcast,70,2013-10-13 07:35:00
3:55 AM,59.0,53.6,82,30.25,10.0,ENE,11.5,16.1,N/A,,Overcast,60,2013-10-13 07:55:00
4:15 AM,59.0,53.6,82,30.25,10.0,ENE,18.4,21.9,N/A,,Overcast,60,2013-10-13 08:15:00
4:35 AM,59.0,53.6,82,30.25,10.0,ENE,18.4,28.8,N/A,,Overcast,60,2013-10-13 08:35:00
4:55 AM,59.0,53.6,82,30.26,10.0,ENE,12.7,24.2,N/A,,Overcast,60,2013-10-13 08:55:00
5:15 AM,59.0,51.8,77,30.26,10.0,ENE,15.0,20.7,N/A,,Overcast,60,2013-10-13 09:15:00
5:35 AM,59.0,51.8,77,30.27,10.0,ENE,16.1,24.2,N/A,,Overcast,60,2013-10-13 09:35:00
5:55 AM,59.0,51.8,77,30.27,10.0,ENE,10.4,17.3,N/A,,Overcast,60,2013-10-13 09:55:00
6:15 AM,59.0,51.8,77,30.28,10.0,ENE,10.4,21.9,N/A,,Overcast,60,2013-10-13 10:15:00
6:35 AM,59.0,51.8,77,30.28,10.0,ENE,11.5,17.3,N/A,,Overcast,70,2013-10-13 10:35:00
6:55 AM,59.0,51.8,77,30.29,10.0,ENE,12.7,19.6,N/A,,Overcast,60,2013-10-13 10:55:00
7:15 AM,59.0,51.8,77,30.29,10.0,ENE,15.0,19.6,N/A,,Overcast,60,2013-10-13 11:15:00
7:35 AM,59.0,51.8,77,30.31,10.0,ENE,12.7,21.9,N/A,,Overcast,60,2013-10-13 11:35:00
7:55 AM,59.0,51.8,77,30.32,10.0,ENE,13.8,20.7,N/A,,Overcast,60,2013-10-13 11:55:00
8:15 AM,59.0,51.8,77,30.32,10.0,ENE,12.7,23.0,N/A,,Overcast,60,2013-10-13 12:15:00
8:35 AM,59.0,51.8,77,30.33,10.0,ENE,12.7,21.9,N/A,,Overcast,60,2013-10-13 12:35:00
8:55 AM,60.8,51.8,72,30.33,10.0,ENE,16.1,21.9,N/A,,Overcast,60,2013-10-13 12:55:00
9:15 AM,60.8,51.8,72,30.33,10.0,ENE,15.0,25.3,N/A,,Overcast,70,2013-10-13 13:15:00
9:35 AM,60.8,51.8,72,30.34,10.0,ENE,16.1,27.6,N/A,,Overcast,60,2013-10-13 13:35:00
9:55 AM,60.8,51.8,72,30.34,10.0,ENE,17.3,26.5,N/A,,Overcast,60,2013-10-13 13:55:00
10:15 AM,60.8,51.8,72,30.34,10.0,ENE,18.4,27.6,N/A,,Overcast,60,2013-10-13 14:15:00
10:35 AM,60.8,51.8,72,30.35,10.0,ENE,10.4,23.0,N/A,,Mostly Cloudy,70,2013-10-13 14:35:00
10:55 AM,62.6,51.8,68,30.36,10.0,ENE,17.3,24.2,N/A,,Mostly Cloudy,70,2013-10-13 14:55:00
11:15 AM,62.6,50.0,63,30.35,10.0,ENE,11.5,25.3,N/A,,Mostly Cloudy,70,2013-10-13 15:15:00
11:35 AM,62.6,51.8,68,30.35,10.0,NE,23.0,-,N/A,,Mostly Cloudy,50,2013-10-13 15:35:00
11:55 AM,62.6,50.0,63,30.35,10.0,NE,19.6,27.6,N/A,,Mostly Cloudy,50,2013-10-13 15:55:00
12:15 PM,62.6,50.0,63,30.36,10.0,ENE,13.8,26.5,N/A,,Mostly Cloudy,70,2013-10-13 16:15:00
12:35 PM,62.6,48.2,59,30.36,10.0,ENE,15.0,26.5,N/A,,Mostly Cloudy,70,2013-10-13 16:35:00
12:55 PM,62.6,50.0,63,30.36,10.0,ENE,13.8,24.2,N/A,,Mostly Cloudy,70,2013-10-13 16:55:00
1:15 PM,62.6,50.0,63,30.36,10.0,ENE,13.8,23.0,N/A,,Mostly Cloudy,70,2013-10-13 17:15:00
1:35 PM,62.6,48.2,59,30.35,10.0,NE,20.7,29.9,N/A,,Mostly Cloudy,50,2013-10-13 17:35:00
1:55 PM,62.6,48.2,59,30.35,10.0,ENE,15.0,21.9,N/A,,Mostly Cloudy,70,2013-10-13 17:55:00
2:15 PM,62.6,48.2,59,30.35,10.0,NE,20.7,24.2,N/A,,Mostly Cloudy,50,2013-10-13 18:15:00
2:35 PM,62.6,48.2,59,30.34,10.0,ENE,17.3,21.9,N/A,,Mostly Cloudy,60,2013-10-13 18:35:00
2:55 PM,62.6,48.2,59,30.34,10.0,NE,16.1,26.5,N/A,,Mostly Cloudy,50,2013-10-13 18:55:00
3:15 PM,62.6,50.0,63,30.34,10.0,ENE,13.8,24.2,N/A,,Mostly Cloudy,60,2013-10-13 19:15:00
3:35 PM,60.8,48.2,63,30.34,10.0,ENE,16.1,21.9,N/A,,Mostly Cloudy,60,2013-10-13 19:35:00
3:55 PM,60.8,50.0,68,30.34,10.0,ENE,16.1,21.9,N/A,,Mostly Cloudy,70,2013-10-13 19:55:00
4:15 PM,60.8,48.2,63,30.34,10.0,ENE,15.0,23.0,N/A,,Mostly Cloudy,70,2013-10-13 20:15:00
4:35 PM,60.8,48.2,63,30.34,10.0,ENE,13.8,19.6,N/A,,Overcast,60,2013-10-13 20:35:00
4:55 PM,60.8,48.2,63,30.34,10.0,ENE,12.7,21.9,N/A,,Mostly Cloudy,70,2013-10-13 20:55:00
5:15 PM,60.8,48.2,63,30.33,10.0,ENE,15.0,20.7,N/A,,Mostly Cloudy,60,2013-10-13 21:15:00
5:35 PM,59.0,48.2,67,30.33,10.0,ENE,11.5,20.7,N/A,,Mostly Cloudy,60,2013-10-13 21:35:00
5:55 PM,59.0,48.2,67,30.33,10.0,ENE,10.4,17.3,N/A,,Scattered Clouds,70,2013-10-13 21:55:00
6:15 PM,57.2,48.2,72,30.34,10.0,ENE,9.2,-,N/A,,Scattered Clouds,70,2013-10-13 22:15:00
6:35 PM,57.2,48.2,72,30.33,10.0,ENE,8.1,-,N/A,,Partly Cloudy,70,2013-10-13 22:35:00
6:55 PM,57.2,48.2,72,30.34,10.0,ENE,6.9,-,N/A,,Clear,70,2013-10-13 22:55:00
7:15 PM,57.2,48.2,72,30.34,10.0,ENE,8.1,-,N/A,,Clear,70,2013-10-13 23:15:00
7:35 PM,57.2,48.2,72,30.34,10.0,ENE,9.2,-,N/A,,Scattered Clouds,70,2013-10-13 23:35:00
7:55 PM,57.2,48.2,72,30.34,10.0,ENE,8.1,-,N/A,,Scattered Clouds,60,2013-10-13 23:55:00
8:15 PM,57.2,48.2,72,30.35,10.0,ENE,5.8,-,N/A,,Scattered Clouds,70,2013-10-14 00:15:00
8:35 PM,57.2,48.2,72,30.35,10.0,ENE,4.6,-,N/A,,Partly Cloudy,60,2013-10-14 00:35:00
8:55 PM,57.2,48.2,72,30.35,10.0,ENE,5.8,-,N/A,,Mostly Cloudy,70,2013-10-14 00:55:00
9:15 PM,57.2,48.2,72,30.35,10.0,ENE,6.9,-,N/A,,Overcast,60,2013-10-14 01:15:00
9:35 PM,57.2,48.2,72,30.36,10.0,ENE,6.9,-,N/A,,Overcast,60,2013-10-14 01:35:00
9:55 PM,57.2,48.2,72,30.36,10.0,ENE,5.8,-,N/A,,Mostly Cloudy,70,2013-10-14 01:55:00
10:15 PM,57.2,48.2,72,30.36,10.0,East,5.8,-,N/A,,Scattered Clouds,80,2013-10-14 02:15:00
10:35 PM,55.4,48.2,77,30.36,10.0,East,3.5,-,N/A,,Mostly Cloudy,80,2013-10-14 02:35:00
10:55 PM,57.2,48.2,72,30.36,10.0,NE,4.6,-,N/A,,Scattered Clouds,50,2013-10-14 02:55:00
11:15 PM,55.4,48.2,77,30.36,10.0,ENE,3.5,-,N/A,,Mostly Cloudy,60,2013-10-14 03:15:00
11:35 PM,55.4,48.2,77,30.35,10.0,ENE,4.6,-,N/A,,Overcast,70,2013-10-14 03:35:00
11:55 PM,57.2,48.2,72,30.35,10.0,ENE,5.8,-,N/A,,Overcast,60,2013-10-14 03:55:00